"Time","Temp","Dewpoint","Humidity","Pressure","Direction","Speed","Gust","Precip","PrecipRate"
"00:04:57","28.6","24","82.6","30.48","134","0.1","1.2","0.00","0.00"
"00:09:57","28.6","24.1","83","30.48","133","0","0","0.00","0.00"
"00:14:58","28.7","24.2","83","30.48","98","1.2","3.6","0.00","0.00"
"00:19:57","28.7","24.2","83","30.47","98","0.6","2.4","0.00","0.00"
"00:24:56","28.7","24.2","83","30.47","98","0.3","1.2","0.00","0.00"
"00:29:59","28.6","24.1","83","30.47","98","0","1.2","0.00","0.00"
"00:34:57","28.6","24.1","83","30.47","98","1","2.4","0.00","0.00"
"00:39:57","28.6","24.1","83","30.47","98","0","0","0.00","0.00"
"00:44:57","28.6","24.1","83","30.47","98","0","0","0.00","0.00"
"00:49:59","28.6","24.1","83","30.47","98","0","0","0.00","0.00"
"00:54:59","28.6","24.1","83","30.47","98","0","0","0.00","0.00"
"00:59:57","28.4","24","83.5","30.47","98","0","0","0.00","0.00"
"01:04:56","28.2","24","84","30.47","98","0","0","0.00","0.00"
"01:09:56","28.1","23.9","84","30.47","98","0.7","3.6","0.00","0.00"
"01:14:56","28.1","24","84.2","30.47","98","0.1","1.2","0.00","0.00"
"01:19:59","28.2","24","84","30.47","98","0","0","0.00","0.00"
"01:24:59","28.2","24","84","30.47","98","0","0","0.00","0.00"
"01:29:57","28.1","23.9","84","30.47","98","0","0","0.00","0.00"
"01:34:56","28","23.8","84","30.47","98","0","0","0.00","0.00"
"01:39:56","27.8","23.6","84","30.47","98","0","0","0.00","0.00"
"01:44:56","27.6","23.7","85","30.47","98","0.4","2.4","0.00","0.00"
"01:49:59","27.5","23.6","85","30.47","98","0.1","2.3","0.00","0.00"
"01:54:58","27.4","23.5","85","30.47","98","0","1.2","0.00","0.00"
"01:59:56","27.3","23.4","85","30.47","98","0.2","2.4","0.00","0.00"
"02:04:58","27.2","23.6","85.8","30.47","98","0","2.3","0.00","0.00"
"02:09:58","27.2","23.6","86","30.47","98","0","1.2","0.00","0.00"
"02:14:59","27.1","23.5","86","30.47","98","0.3","2.4","0.00","0.00"
"02:19:57","27.1","23.5","86","30.47","98","0.4","2.4","0.00","0.00"
"02:24:57","27","23.4","86","30.47","98","0","0","0.00","0.00"
"02:29:59","26.9","23.3","86","30.47","98","0","0","0.00","0.00"
"02:34:59","26.8","23.3","86.4","30.47","98","0.6","2.4","0.00","0.00"
"02:39:58","26.8","23.4","87","30.47","98","1.2","2.4","0.00","0.00"
"02:44:58","26.8","23.4","87","30.48","98","0.3","2.3","0.00","0.00"
"02:49:56","26.8","23.4","87","30.48","98","0","1.2","0.00","0.00"
"02:54:56","26.7","23.4","87","30.48","98","0","0","0.00","0.00"
"02:59:58","26.5","23.2","87","30.48","98","0","0","0.00","0.00"
"03:04:58","26.4","23.1","87","30.48","98","0","0","0.00","0.00"
"03:09:58","26.3","23","87","30.48","98","0","0","0.00","0.00"
"03:14:59","26.2","22.9","87","30.48","98","0","1.2","0.00","0.00"
"03:19:58","26.1","22.9","87.3","30.48","98","0.4","2.4","0.00","0.00"
"03:24:58","26.1","23","88","30.48","98","0","0","0.00","0.00"
"03:29:56","26.2","23.1","88","30.48","98","0","0","0.00","0.00"
"03:34:59","26.2","23.1","88","30.48","96","0.4","2.4","0.00","0.00"
"03:39:59","26.2","23.1","88","30.48","96","0.3","2.4","0.00","0.00"
"03:44:59","26.1","22.9","87.6","30.48","96","0","0","0.00","0.00"
"03:49:59","26","22.8","87.2","30.48","96","0","0","0.00","0.00"
"03:54:56","25.9","22.8","88","30.48","95","0.1","2.4","0.00","0.00"
"03:59:56","25.8","22.7","88","30.48","95","0.4","2.4","0.00","0.00"
"04:04:58","25.8","22.8","88.3","30.47","95","0.1","2.4","0.00","0.00"
"04:09:58","25.8","23","89","30.47","81","0.2","3.6","0.00","0.00"
"04:14:58","25.7","22.7","88.1","30.48","81","0.2","2.4","0.00","0.00"
"04:19:58","25.6","22.6","88.4","30.48","81","0","0","0.00","0.00"
"04:24:59","25.5","22.5","88.3","30.48","81","0","0","0.00","0.00"
"04:29:58","25.4","22.3","88","30.48","81","0","0","0.00","0.00"
"04:34:57","25.3","22.4","88.8","30.48","81","0","0","0.00","0.00"
"04:39:56","25.2","22.4","89","30.48","81","0.1","1.2","0.00","0.00"
"04:44:58","25.2","22.4","89","30.48","81","0","0","0.00","0.00"
"04:49:56","25.1","22.3","89","30.48","81","0","0","0.00","0.00"
"04:54:58","25.1","22.4","89.4","30.48","81","0.2","1.2","0.00","0.00"
"04:59:59","25.1","22.5","89.7","30.48","81","0.1","2.4","0.00","0.00"
"05:04:58","25.2","22.7","90","30.48","81","0","0","0.00","0.00"
"05:09:58","25.3","22.8","90","30.48","81","0","0","0.00","0.00"
"05:14:57","25.3","22.8","90","30.48","81","0","0","0.00","0.00"
"05:19:59","25.3","22.8","90","30.48","81","0","0","0.00","0.00"
"05:24:57","25.3","22.8","90","30.48","81","0","0","0.00","0.00"
"05:29:59","25.3","22.8","90","30.48","81","0","0","0.00","0.00"
"05:34:57","25.2","22.7","90","30.48","81","0","0","0.00","0.00"
"05:39:56","25.1","22.5","89.7","30.48","81","0","0","0.00","0.00"
"05:44:59","25","22.3","89.3","30.49","81","0","0","0.00","0.00"
"05:49:56","25","22.5","90","30.49","81","0","0","0.00","0.00"
"05:54:59","24.9","22.4","90","30.49","81","0","0","0.00","0.00"
"05:59:56","24.9","22.4","90","30.49","81","0","0","0.00","0.00"
"06:04:58","24.9","22.4","90","30.49","81","0","0","0.00","0.00"
"06:09:59","25","22.5","90","30.49","81","0","0","0.00","0.00"
"06:14:59","25","22.5","90","30.50","81","0","0","0.00","0.00"
"06:19:57","25.1","22.6","90","30.50","81","0","0","0.00","0.00"
"06:24:59","25.1","22.6","90","30.50","81","0","0","0.00","0.00"
"06:29:57","25.2","22.8","90.4","30.51","81","0","0","0.00","0.00"
"06:34:59","25.4","23.1","91","30.51","81","0","0","0.00","0.00"
"06:39:58","25.5","23.2","91","30.51","81","0","0","0.00","0.00"
"06:44:57","25.7","23.4","91","30.52","81","0","0","0.00","0.00"
"06:49:58","25.7","23.4","90.7","30.52","81","0","0","0.00","0.00"
"06:54:56","25.8","23.4","90.6","30.52","81","0","0","0.00","0.00"
"06:59:58","25.8","23.3","90","30.52","81","0","0","0.00","0.00"
"07:04:56","25.8","23.3","90","30.52","81","0","0","0.00","0.00"
"07:09:56","25.8","23.3","90","30.52","81","0","0","0.00","0.00"
"07:14:56","25.8","23.5","90.7","30.53","81","0","0","0.00","0.00"
"07:19:58","26","23.7","91","30.53","81","0","0","0.00","0.00"
"07:24:57","26.2","23.9","91","30.53","81","0","0","0.00","0.00"
"07:29:59","26.5","24.2","91","30.54","81","0","0","0.00","0.00"
"07:34:57","26.8","24.5","91","30.54","70","0","2.4","0.00","0.00"
"07:39:57","27.1","24.8","91","30.54","69","0.3","2.4","0.00","0.00"
"07:44:59","27.4","25.1","91","30.54","69","0.1","1.2","0.00","0.00"
"07:49:57","27.7","25.4","91","30.54","69","0.5","3.6","0.00","0.00"
"07:54:59","28","25.6","90.7","30.54","77","1.1","3.6","0.00","0.00"
"07:59:57","28.2","25.6","90","30.55","81","0.5","3.6","0.00","0.00"
"08:04:59","28.6","26","90","30.55","81","0","1.2","0.00","0.00"
"08:09:59","28.9","26.3","90","30.55","81","0.2","2.4","0.00","0.00"
"08:14:58","29.3","26.6","89.7","30.56","81","0","0","0.00","0.00"
"08:19:56","29.6","26.8","89.1","30.56","81","0","0","0.00","0.00"
"08:24:58","30.1","27.2","89","30.56","81","0","1.2","0.00","0.00"
"08:29:59","30.6","27.7","89","30.56","81","0","1.2","0.00","0.00"
"08:34:57","31","28.1","89","30.56","81","0","0","0.00","0.00"
"08:39:56","31.3","28.4","88.9","30.56","81","0","0","0.00","0.00"
"08:44:58","31.7","28.6","88","30.57","81","0","0","0.00","0.00"
"08:49:59","32","29","88.5","30.57","81","0","0","0.00","0.00"
"08:54:57","32.3","29.1","88","30.57","81","0","0","0.00","0.00"
"08:59:58","32.7","29.5","88.1","30.57","81","0","0","0.00","0.00"
"09:04:56","33.1","29.9","88","30.57","81","0","0","0.00","0.00"
"09:09:56","33.7","30.5","88","30.57","81","0","0","0.00","0.00"
"09:14:56","34.3","31.1","88","30.57","81","0","0","0.00","0.00"
"09:19:57","35","31.6","87.3","30.57","81","0","0","0.00","0.00"
"09:24:59","35.8","32.3","86.8","30.57","81","0","0","0.00","0.00"
"09:29:56","36.7","32.5","84.8","30.58","81","0","0","0.00","0.00"
"09:34:58","37.5","32.9","83.3","30.58","81","0","0","0.00","0.00"
"09:39:57","38.6","33.7","82.3","30.58","81","0","0","0.00","0.00"
"09:44:59","41.1","35.2","79.7","30.59","80","0.3","2.4","0.00","0.00"
"09:49:59","42.7","35","74.3","30.59","324","2.7","8.4","0.00","0.00"
"09:54:57","43.6","33.4","67.2","30.59","346","2.4","8.1","0.00","0.00"
"09:59:57","44.6","31.3","59.3","30.60","321","2.1","8.4","0.00","0.00"
"10:04:59","44.8","30.9","58.1","30.60","346","2.6","8.4","0.00","0.00"
"10:09:58","44.7","30.8","58","30.60","344","1.7","7.2","0.00","0.00"
"10:14:57","44.7","29.5","55","30.60","327","2.8","7.2","0.00","0.00"
"10:19:58","44.7","29.1","54.1","30.60","314","2.8","10.8","0.00","0.00"
"10:24:56","44.8","28.8","53.3","30.60","336","3.2","8.4","0.00","0.00"
"10:29:57","45","29.2","53.8","30.60","320","2.3","7.2","0.00","0.00"
"10:34:57","44.9","28.8","53.1","30.60","304","2.6","8.4","0.00","0.00"
"10:39:59","44.9","29.1","53.7","30.60","284","2.8","6","0.00","0.00"
"10:44:57","45","28.6","52.5","30.60","331","3.9","13.2","0.00","0.00"
"10:49:59","45","27.7","50.5","30.59","327","4.8","10.8","0.00","0.00"
"10:54:56","45.4","26.8","48","30.59","316","5.7","12","0.00","0.00"
"10:59:58","46.7","28","47.8","30.59","321","4","11.5","0.00","0.00"
"11:04:59","47.6","27.4","45.2","30.59","298","3.4","8.1","0.00","0.00"
"11:09:58","47.5","26.8","44.3","30.59","335","5.8","12","0.00","0.00"
"11:14:58","46.9","26.2","44.2","30.59","339","5.2","10.8","0.00","0.00"
"11:19:59","47","26.3","44.2","30.59","299","3.2","8.1","0.00","0.00"
"11:24:57","47","26.4","44.4","30.59","313","3.2","7.2","0.00","0.00"
"11:29:57","47.3","26.9","44.7","30.59","318","2.6","7.2","0.00","0.00"
"11:34:59","47.2","26.4","43.9","30.59","331","2.6","4.8","0.00","0.00"
"11:39:58","47.6","25.8","42.4","30.59","316","3.7","12","0.00","0.00"
"11:44:57","47.7","24","39.3","30.59","303","5.4","15.6","0.00","0.00"
"11:49:58","47.9","23.4","37.9","30.58","317","6","16.1","0.00","0.00"
"11:54:56","48.4","24.5","38.9","30.58","299","5","16.1","0.00","0.00"
"11:59:58","48.6","24.1","38","30.58","329","5.7","15","0.00","0.00"
"12:04:56","49.1","23.8","36.9","30.58","330","6.1","18.4","0.00","0.00"
"12:09:59","49.1","23.8","36.9","30.58","329","5.8","15","0.00","0.00"
"12:14:59","48.9","23.4","36.5","30.58","325","5.7","18","0.00","0.00"
"12:19:57","47.9","22.5","36.4","30.58","307","4.4","18.4","0.00","0.00"
"12:24:56","47.5","22.4","36.8","30.58","334","5.6","13.2","0.00","0.00"
"12:29:57","47.5","22.2","36.6","30.58","332","4.9","13.2","0.00","0.00"
"12:34:56","47.3","21.9","36.5","30.58","325","5.9","18","0.00","0.00"
"12:39:59","47.1","21.4","36","30.58","319","5","17.3","0.00","0.00"
"12:44:57","47.3","22.1","36.7","30.58","326","4.1","10.8","0.00","0.00"
"12:49:59","47.1","20.6","34.7","30.57","330","7.6","15","0.00","0.00"
"12:54:57","46.8","20.7","35.2","30.57","327","5.1","12","0.00","0.00"
"12:59:58","47","21.8","36.7","30.57","314","3.7","10.8","0.00","0.00"
"13:04:56","46.8","20.6","35","30.57","340","5.6","15","0.00","0.00"
"13:09:59","46.4","20.1","34.9","30.57","332","6.6","13.2","0.00","0.00"
"13:14:59","46.1","20.4","35.6","30.58","335","5.7","13.2","0.00","0.00"
"13:19:57","46.1","20","35.2","30.58","334","5.2","12.7","0.00","0.00"
"13:24:59","46.1","20.2","35.5","30.58","336","3.1","8.4","0.00","0.00"
"13:29:57","46.3","20.7","36","30.58","356","2.5","7.2","0.00","0.00"
"13:34:59","46.4","21.1","36.3","30.58","350","2.9","7.2","0.00","0.00"
"13:39:58","46.4","21","36.2","30.58","329","3.8","10.8","0.00","0.00"
"13:44:57","46","20","35.2","30.58","319","4.6","12","0.00","0.00"
"13:49:58","46.4","21.3","36.8","30.57","317","2.4","6","0.00","0.00"
"13:54:57","46.9","22","37.1","30.57","325","2.6","12","0.00","0.00"
"13:59:59","46.8","20.9","35.5","30.57","332","5.6","13.2","0.00","0.00"
"14:04:56","46.8","20.9","35.6","30.57","331","4.9","10.8","0.00","0.00"
"14:09:59","46.9","20.9","35.3","30.57","316","2.7","8.1","0.00","0.00"
"14:14:59","47.4","21.8","36.2","30.57","339","3.4","13.2","0.00","0.00"
"14:19:57","47.5","22.3","36.6","30.57","337","3","8.1","0.00","0.00"
"14:24:59","48.4","22.9","36.4","30.57","347","1","10.8","0.00","0.00"
"14:29:57","48.8","21.3","33.4","30.57","333","4.9","16.1","0.00","0.00"
"14:34:56","48.6","20.7","32.9","30.57","339","6.5","16.1","0.00","0.00"
"14:39:59","48.7","20.6","32.7","30.57","332","4","14.4","0.00","0.00"
"14:44:57","48.9","19.4","30.9","30.58","325","5.9","17.3","0.00","0.00"
"14:49:59","49.4","20.1","31.2","30.58","316","4.8","17.3","0.00","0.00"
"14:54:57","49.8","19.3","29.6","30.58","342","6.6","19.2","0.00","0.00"
"14:59:58","49.3","18.7","29.4","30.58","326","5.6","19.6","0.00","0.00"
"15:04:56","49.8","19.9","30.4","30.57","298","3.4","13.2","0.00","0.00"
"15:09:59","49.6","18.9","29.4","30.57","314","5.4","15","0.00","0.00"
"15:14:58","49.4","18.6","29.2","30.57","324","4.8","13.2","0.00","0.00"
"15:19:56","49.1","18.6","29.5","30.57","313","5","10.4","0.00","0.00"
"15:24:58","49.3","18.8","29.7","30.57","355","4.1","13.2","0.00","0.00"
"15:29:56","49.1","18.1","28.9","30.57","317","4.7","15","0.00","0.00"
"15:34:58","49.1","18.4","29.4","30.57","321","4.5","12","0.00","0.00"
"15:39:57","48.7","18.1","29.4","30.57","333","6.4","15","0.00","0.00"
"15:44:59","48.5","18","29.5","30.58","323","4.6","15","0.00","0.00"
"15:49:56","48.4","18.4","30","30.58","321","4.9","17.3","0.00","0.00"
"15:54:59","48.3","17.1","28.5","30.58","329","6.9","15","0.00","0.00"
"15:59:56","48.2","16.5","27.9","30.58","334","6.2","16.1","0.00","0.00"
"16:04:57","48.1","16.5","28","30.58","338","5.7","15","0.00","0.00"
"16:09:57","47.9","16.8","28.6","30.58","318","2.4","8.1","0.00","0.00"
"16:14:57","47.7","16.5","28.5","30.58","327","2.6","7.2","0.00","0.00"
"16:19:59","47.5","16.2","28.2","30.58","334","3","10.8","0.00","0.00"
"16:24:57","47.3","15.7","27.8","30.58","327","3.5","7.2","0.00","0.00"
"16:29:59","47","15.1","27.5","30.58","313","3.7","12","0.00","0.00"
"16:34:58","46.6","15.1","27.8","30.58","333","3.6","8.1","0.00","0.00"
"16:39:58","46.3","14.9","28","30.58","336","3.6","8.4","0.00","0.00"
"16:44:57","45.9","14.8","28.2","30.59","312","3.2","12","0.00","0.00"
"16:49:59","45.6","14.8","28.7","30.59","308","2.2","4.6","0.00","0.00"
"16:54:57","45.1","15.1","29.5","30.59","4","2","6","0.00","0.00"
"16:59:56","44.6","14.2","28.9","30.59","335","2","7.2","0.00","0.00"
"17:04:58","44.5","14","28.8","30.59","325","1.4","6","0.00","0.00"
"17:09:58","44.3","13.9","28.9","30.59","327","1.2","3.6","0.00","0.00"
"17:14:58","44","14.5","30.1","30.59","325","0.3","2.3","0.00","0.00"
"17:19:57","43.5","15.1","31.4","30.59","325","0","1.2","0.00","0.00"
"17:24:56","42.8","15.5","32.7","30.59","325","0","0","0.00","0.00"
"17:29:59","42.2","14.6","32.3","30.59","325","0","1.2","0.00","0.00"
"17:34:58","41.7","14.6","32.9","30.59","325","0","1.2","0.00","0.00"
"17:39:58","41.2","15.2","34.5","30.59","325","0.1","1.2","0.00","0.00"
"17:44:58","40.7","15.6","35.7","30.60","325","0","0","0.00","0.00"
"17:49:56","40.1","15.7","36.8","30.60","325","0","0","0.00","0.00"
"17:54:56","39.5","16.2","38.4","30.60","325","0","0","0.00","0.00"
"17:59:59","38.9","16.5","39.8","30.60","325","0","0","0.00","0.00"
"18:04:57","38.3","16.9","41.5","30.60","325","0","0","0.00","0.00"
"18:09:57","37.7","17.3","43.3","30.60","325","0","0","0.00","0.00"
"18:14:58","37.1","16.6","42.9","30.61","325","0","0","0.00","0.00"
"18:19:57","36.6","17.1","44.8","30.61","325","0","0","0.00","0.00"
"18:24:56","36","18.5","48.6","30.61","325","0","0","0.00","0.00"
"18:29:58","35.4","17.6","48","30.62","339","0","3.6","0.00","0.00"
"18:34:57","35","18","49.6","30.62","355","0","2.3","0.00","0.00"
"18:39:57","34.7","18.5","51.3","30.62","355","0","0","0.00","0.00"
"18:44:57","34.3","18.2","51.3","30.62","355","0","0","0.00","0.00"
"18:49:56","34","18.8","53.4","30.62","355","0","0","0.00","0.00"
"18:54:59","33.7","18.4","53.2","30.62","355","0.1","1.2","0.00","0.00"
"18:59:57","33.4","18.6","54.2","30.63","355","0","1.2","0.00","0.00"
"19:04:56","33.2","18","53.3","30.63","350","0.3","2.4","0.00","0.00"
"19:09:56","33.2","18.2","53.7","30.63","347","0.2","3.6","0.00","0.00"
"19:14:57","33","18.8","55.4","30.63","347","0.4","3.6","0.00","0.00"
"19:19:56","32.9","18.7","55.5","30.63","348","0.1","2.3","0.00","0.00"
"19:24:58","32.9","17.9","53.7","30.63","348","0","0","0.00","0.00"
"19:29:57","33","17.9","53.5","30.63","348","0","0","0.00","0.00"
"19:34:57","33","17.8","53.2","30.63","348","0","0","0.00","0.00"
"19:39:57","33","17.9","53.5","30.63","348","0","0","0.00","0.00"
"19:44:56","32.8","18.2","54.5","30.63","348","0","0","0.00","0.00"
"19:49:59","32.7","17.2","52.5","30.63","348","0","0","0.00","0.00"
"19:54:58","32.5","17.7","53.9","30.63","348","0","0","0.00","0.00"
"19:59:57","32.4","18.1","55.2","30.64","348","0","0","0.00","0.00"
"20:04:56","32.3","16.8","52.4","30.64","348","0","0","0.00","0.00"
"20:09:59","32.2","18.4","56.3","30.64","348","0","0","0.00","0.00"
"20:14:57","32.1","17.9","55.5","30.64","348","0","0","0.00","0.00"
"20:19:57","32","17.7","55.1","30.64","348","0","1.2","0.00","0.00"
"20:24:57","31.8","18.4","57.2","30.64","348","0.2","1.2","0.00","0.00"
"20:29:56","31.5","18.5","58.2","30.64","348","0.1","1.2","0.00","0.00"
"20:34:56","31.2","18.5","59.1","30.64","347","0","1.2","0.00","0.00"
"20:39:57","30.9","18","58.6","30.64","347","0.1","1.2","0.00","0.00"
"20:44:57","30.8","17.1","56.6","30.64","347","0.4","2.4","0.00","0.00"
"20:49:56","30.9","16.8","55.5","30.64","347","0.1","1.2","0.00","0.00"
"20:54:56","31.2","16.5","54","30.64","347","0.2","1.2","0.00","0.00"
"20:59:56","31.5","16.7","53.9","30.64","347","0.1","2.4","0.00","0.00"
"21:04:58","31.8","17.4","54.9","30.64","347","0.1","2.4","0.00","0.00"
"21:09:58","31.9","17.3","54.6","30.64","347","0.1","1.2","0.00","0.00"
"21:14:56","31.9","17.4","54.8","30.64","347","0","0","0.00","0.00"
"21:19:59","31.8","17.2","54.5","30.64","347","0","0","0.00","0.00"
"21:24:59","31.7","17.4","55","30.64","347","0","0","0.00","0.00"
"21:29:58","31.6","16.7","53.6","30.64","347","0","0","0.00","0.00"
"21:34:59","31.5","16.5","53.4","30.64","347","0","0","0.00","0.00"
"21:39:59","31.5","16.5","53.6","30.64","347","0","1.2","0.00","0.00"
"21:44:56","31.4","17.2","55.2","30.65","347","0","0","0.00","0.00"
"21:49:59","31.1","17.7","57.3","30.65","347","0","0","0.00","0.00"
"21:54:59","30.7","18.1","59.2","30.65","347","0","0","0.00","0.00"
"21:59:59","30.5","18.1","59.7","30.66","347","0","0","0.00","0.00"
"22:04:58","30.4","17.8","59.2","30.66","347","0","0","0.00","0.00"
"22:09:57","30.3","17.7","59","30.66","347","0","0","0.00","0.00"
"22:14:59","30.2","17.4","58.5","30.66","347","0","0","0.00","0.00"
"22:19:59","30.1","16.8","57.2","30.66","347","0","0","0.00","0.00"
"22:24:59","30.1","16.6","56.8","30.66","347","0","0","0.00","0.00"
"22:29:58","30.1","16.7","57.1","30.67","347","0","0","0.00","0.00"
"22:34:58","30.1","16.7","57","30.67","347","0","0","0.00","0.00"
"22:39:59","30.1","16.7","57","30.67","347","0","0","0.00","0.00"
"22:44:56","30.1","16.6","56.8","30.68","347","0","1.2","0.00","0.00"
"22:49:59","30","16.6","57","30.68","347","0","0","0.00","0.00"
"22:54:57","29.9","16.5","57","30.68","347","0","0","0.00","0.00"
"22:59:56","29.8","16.4","57","30.68","347","0","0","0.00","0.00"
"23:04:59","29.6","16.9","58.7","30.68","347","0","0","0.00","0.00"
"23:09:59","29.4","16.9","59.2","30.68","347","0","0","0.00","0.00"
"23:14:57","29.2","17","60","30.68","347","0","0","0.00","0.00"
"23:19:57","29.1","17.1","60.6","30.67","347","0","0","0.00","0.00"
"23:24:57","28.9","16.7","60","30.67","347","0","0","0.00","0.00"
"23:29:56","28.9","16.5","59.6","30.68","347","0","0","0.00","0.00"
"23:34:56","28.8","16.6","60","30.68","347","0","0","0.00","0.00"
"23:39:57","28.7","16.8","60.7","30.68","347","0","0","0.00","0.00"
"23:44:58","28.6","17.2","62","30.68","347","0","0","0.00","0.00"
